sat.trackr.live / text

‹ back to catalog

STARLINK-31510

NORAD 59575 · 2024-076M

PAYLOAD ACTIVE UNKNOWN

§ Identity

Operator
Country
US
Launch date
2024-04-23
Launch site
AFETR
Launch vehicle
Mass (kg)
RCS (m²)

Purposes: comms

External: N2YO · Heavens-Above · Gunter

§ Orbital elements

Epoch: 2026-09-21T06:33:43.880256Z

Period
94.27 min
Inclination
42.9973°
Eccentricity
0.0003063
Mean motion
15.27580822 rev/d
Perigee alt
480.9 km
Apogee alt
485.1 km
Semi-major
6,861.2 km
B*
-2.6385e-6
RAAN
341.0708°
Arg perigee
162.2933°
Mean anomaly
197.8026°
Rev number
13,645

§ Raw data

STARLINK-315101 59575U 24076M   26264.27342454 -.00000336  00000+0 -26385-5 0  99932 59575  42.9973 341.0708 0003063 162.2933 197.8026 15.27580822136450

JSON: /api/v1/satellites/59575 · /tle

For live sub-satellite position, see the globe view (requires WebGL).

§ Visibility from observer

Set your observer location to see the next 7 days of passes ≥ 10°. The values pass through the URL so the page stays shareable.

No JS? Fill the form by hand. The geolocation button needs JavaScript.